Regional Weather Roundup
Issued by NWS Green Bay, WI

Home | Current Version | Previous Version | Graphics & Text | Print | Product List | Glossary Off
Versions: 1 2 3 4 5 6 7 8 9 10 11 12 13 14 15 16 17 18 19 20 21 22 23 24 25 26 27 28 29 30 31 32 33 34 35 36 37 38 39 40 41 42 43 44 45 46 47 48 49 50

000
ASUS43 KGRB 071711
RWRGRB

NORTH-CENTRAL AND NORTHEAST WISCONSIN REGIONAL WEATHER ROUNDUP
NATIONAL WEATHER SERVICE GREEN BAY WI
1200 PM CDT TUE JUL 07 2015

WIZ005-009-010>012-018-019-071800-
NORTH CENTRAL WISCONSIN

CITY           SKY/WX    TMP DP  RH WIND       PRES   REMARKS
IRONWOOD       MOSUNNY   59  46  63 NW10      30.11S
MANITOWISH WTR CLOUDY    60  46  59 N8G16     30.12S
ARBOR VITAE    SUNNY     62  46  55 N15       30.11S
EAGLE RIVER    PTSUNNY   61  43  51 NE12G18   30.10S
LAND O LAKES   MOSUNNY   61  44  52 N13       30.11S
RHINELANDER    MOSUNNY   61  44  53 N9        30.11S
PHILLIPS       PTSUNNY   62  47  58 N10G17    30.11S
ANTIGO         CLOUDY    61  47  60 N14G20    30.09S
TOMAHAWK       MOSUNNY   62  46  56 N7        30.11S
MERRILL        PTSUNNY   62  47  57 N13G20    30.11R
$$

WIZ013-073-071800-
NORTHEAST WISCONSIN

CITY           SKY/WX    TMP DP  RH WIND       PRES   REMARKS
IRON MOUNTAIN  CLOUDY    62  45  53 N16G23    30.05S
MARINETTE      PTSUNNY   63  46  55 N14       30.03F
OCONTO         PTSUNNY   64  48  54 N12G18    30.04S
$$

WIZ017-030-035>037-045-071800-
CENTRAL WISCONSIN

CITY           SKY/WX    TMP DP  RH WIND       PRES   REMARKS
MEDFORD        CLOUDY    60  47  60 N7        30.12S
WAUSAU         PTSUNNY   64  45  49 NE9G20    30.08F
MOSINEE        PTSUNNY   61  46  59 NW12G18   30.11S
MARSHFIELD     CLOUDY    61  44  53 N10G20    30.11S
WISC RAPIDS    CLOUDY    63  44  50 N15       30.11R
STEVENS POINT  CLOUDY    61  44  53 N12       30.10S
WAUPACA        PTSUNNY   67  45  44 N10       30.08S
SHAWANO        MOSUNNY   66  46  48 N6        30.07S
CLINTONVILLE   CLOUDY    63  43  48 NW12      30.07S
$$

WIZ038-039-048-051-071800-
FOX VALLEY

CITY           SKY/WX    TMP DP  RH WIND       PRES   REMARKS
NWS GREEN BAY  CLOUDY    65  48  54 NW10      30.06R
APPLETON       PTSUNNY   63  45  51 N14G20    30.06R
OSHKOSH        CLOUDY    64  47  53 N14G22    30.05R
FOND DU LAC    CLOUDY    66  50  56 N14G21    30.06R
$$

WIZ022-050-052-071800-
EAST CENTRAL WISCONSIN

CITY           SKY/WX    TMP DP  RH WIND       PRES   REMARKS
STURGEON BAY   CLOUDY    61  46  59 N18       30.06S
MANITOWOC      CLOUDY    63  48  58 MISG      30.04R
SHEBOYGAN      CLOUDY    65  48  54 N13G18    30.04R
$$

LMZ563-521-522-541>543-071800-
LAKESHORE

STATION/POSITION TIME  TEMP    WIND        PRES    VSBY  WAVE
                       AIR SEA DIR/SP/G                  HT/PER
                 (UTC) (F)     (DEG/KT/KT) (MB)    (MI)  (FT/S)
SHEBOYGAN LKSHOR 1700   58      20/ 10/ 11 1017.5R
KEWAUNEE LKSHORE 1600   61     360/  9/ 19 1016.3R
ALGOMA MARINA    1626          360/ 15/ 22   N/A
NORTHPORT PIER   1600   59     330/ 15/ 19 1016.6R
N MID LAKE BUOY  1650   55 52  310/ 12/ 14 1016.3R         2/ 4
SISTER BAY LKSHO 1614   61     340/ 18/ 21   N/A
CHAMBERS ISLAND  1600   60     310/ 13/ 18 1016.9S
MENOMINEE LKSHOR 1612   60     330/ 15/ 19 1017.8
$$



USA.gov is the U.S. government's official web portal to all federal, state and local government web resources and services.